#�ϑ�����,���ϕ���,���ϕ���,�ő啗��,�ő啗����������,�ő�u�ԕ���,�ő�u�ԕ�����������
#(�N����),(m/s)   ,(16����),(m/s)   ,(16����)        ,(m/s)       ,(16����)            
2018/5/19 0:01,1.7,6,1.7,16,3.1,7
2018/5/19 0:02,1.6,6,1.7,1,3,7
2018/5/19 0:03,1.5,6,1.6,5,1.9,7
2018/5/19 0:04,1.5,6,1.6,5,2.9,6
2018/5/19 0:05,1.4,7,1.5,5,2.1,9
2018/5/19 0:06,1.5,7,1.5,5,3.1,10
2018/5/19 0:07,1.4,7,1.4,5,2.9,10
2018/5/19 0:08,1.3,7,1.4,5,2,9
2018/5/19 0:09,1.3,7,1.3,5,2.7,11
2018/5/19 0:10,1.3,7,1.3,5,2.6,8
2018/5/19 0:11,1.2,8,1.3,5,3,13
2018/5/19 0:12,1.3,8,1.3,5,3.8,14
2018/5/19 0:13,1.3,8,1.3,6,2.6,8
2018/5/19 0:14,1.3,8,1.3,6,1.9,8
2018/5/19 0:15,1.3,8,1.3,7,3.8,8
2018/5/19 0:16,1.4,8,1.4,7,3.7,8
2018/5/19 0:17,1.5,8,1.5,8,4.3,8
2018/5/19 0:18,1.5,8,1.6,8,2.6,9
2018/5/19 0:19,1.5,8,1.5,8,2.5,8
2018/5/19 0:20,1.5,8,1.5,8,3.5,8
2018/5/19 0:21,1.5,8,1.5,8,3.5,7
2018/5/19 0:22,1.5,8,1.6,8,2.7,7
2018/5/19 0:23,1.5,8,1.5,8,1.5,8
2018/5/19 0:24,1.4,7,1.5,8,1.6,8
2018/5/19 0:25,1.3,8,1.4,8,1,2
2018/5/19 0:26,1.1,7,1.3,8,1,5
2018/5/19 0:27,1,7,1.1,8,2,5
2018/5/19 0:28,1,7,1,8,1,8
2018/5/19 0:29,0.9,7,1,8,1.9,7
2018/5/19 0:30,1,7,1,8,2.1,6
2018/5/19 0:31,1,6,1,8,2.1,6
2018/5/19 0:32,0.9,7,1,8,1.6,8
2018/5/19 0:33,0.8,7,0.9,8,0.5,14
2018/5/19 0:34,1,8,1,7,3.2,10
2018/5/19 0:35,1.2,8,1.2,8,4.4,10
2018/5/19 0:36,1.3,8,1.3,8,4.7,9
2018/5/19 0:37,1.3,8,1.3,8,2.2,9
2018/5/19 0:38,1.4,8,1.4,9,3.6,8
2018/5/19 0:39,1.6,8,1.6,9,3.7,9
2018/5/19 0:40,1.7,9,1.7,9,4.3,9
2018/5/19 0:41,1.8,9,1.8,9,5.2,9
2018/5/19 0:42,2,9,2,9,5.7,9
2018/5/19 0:43,2.3,9,2.3,9,4.8,9
2018/5/19 0:44,2.3,9,2.4,9,4.8,10
2018/5/19 0:45,2.3,9,2.4,9,5.2,10
2018/5/19 0:46,2.5,9,2.5,9,5.6,10
2018/5/19 0:47,2.7,9,2.7,9,5,10
2018/5/19 0:48,2.7,9,2.7,9,4.2,9
2018/5/19 0:49,2.6,9,2.7,9,5,9
2018/5/19 0:50,2.6,9,2.7,9,4.8,8
2018/5/19 0:51,2.4,10,2.6,9,4.2,10
2018/5/19 0:52,2.4,10,2.4,9,3.9,8
2018/5/19 0:53,2.4,9,2.4,9,3.8,8
2018/5/19 0:54,2.4,9,2.4,9,4.1,9
2018/5/19 0:55,2.4,9,2.4,9,3.8,8
2018/5/19 0:56,2.3,9,2.4,9,2.9,9
2018/5/19 0:57,2.3,9,2.3,9,3.3,8
2018/5/19 0:58,2.3,9,2.3,9,3,7
2018/5/19 0:59,2.2,8,2.3,9,2.4,6
2018/5/19 1:00,2.1,8,2.2,9,2.5,3
2018/5/19 1:01,2.1,7,2.2,10,2.4,16
2018/5/19 1:02,2.1,7,2.1,10,4.4,1
2018/5/19 1:03,2.1,6,2.1,9,4.9,3
2018/5/19 1:04,2.1,5,2.1,9,4.4,4
2018/5/19 1:05,2,5,2.1,9,2.9,4
2018/5/19 1:06,2.1,4,2.1,9,3.9,4
2018/5/19 1:07,1.9,4,2,9,1.3,4
2018/5/19 1:08,1.7,4,1.9,9,0.8,5
2018/5/19 1:09,1.7,4,1.7,8,1.9,10
2018/5/19 1:10,1.6,4,1.7,8,2.4,10
2018/5/19 1:11,1.7,5,1.7,7,2.7,9
2018/5/19 1:12,1.6,6,1.7,7,1.9,9
2018/5/19 1:13,1.4,6,1.6,6,1.6,4
2018/5/19 1:14,1.2,6,1.4,5,1,3
2018/5/19 1:15,1.1,6,1.2,5,1.6,6
2018/5/19 1:16,0.9,7,1.1,4,1.8,9
2018/5/19 1:17,0.9,8,0.9,4,0.8,11
2018/5/19 1:18,1,8,1,4,2.1,11
2018/5/19 1:19,1.1,8,1.1,4,3.1,10
2018/5/19 1:20,1.1,9,1.1,5,3.3,10
2018/5/19 1:21,1.1,9,1.1,5,3.9,10
2018/5/19 1:22,1.3,9,1.3,6,3.7,9
2018/5/19 1:23,1.4,10,1.4,6,3.3,10
2018/5/19 1:24,1.6,10,1.6,10,4.2,9
2018/5/19 1:25,1.6,10,1.6,10,3.7,9
2018/5/19 1:26,1.8,10,1.8,10,4.3,9
2018/5/19 1:27,2,10,2,10,4.5,9
2018/5/19 1:28,2.1,10,2.1,10,4.7,9
2018/5/19 1:29,2.1,10,2.2,10,3.8,9
2018/5/19 1:30,2.2,10,2.2,10,3.1,10
2018/5/19 1:31,2.1,10,2.2,10,1.3,8
2018/5/19 1:32,1.9,10,2,10,2.1,11
2018/5/19 1:33,1.7,10,1.9,10,1.3,13
2018/5/19 1:34,1.6,10,1.7,10,3,15
2018/5/19 1:35,1.6,11,1.6,10,2.1,16
2018/5/19 1:36,1.5,12,1.6,10,2.7,2
2018/5/19 1:37,1.4,12,1.5,10,2.9,2
2018/5/19 1:38,1.4,14,1.4,10,3.2,2
2018/5/19 1:39,1.3,16,1.4,10,2.6,2
2018/5/19 1:40,1.3,1,1.3,10,5.4,4
2018/5/19 1:41,1.5,1,1.5,10,4.2,2
2018/5/19 1:42,1.6,1,1.6,10,3.1,2
2018/5/19 1:43,1.7,1,1.7,10,3.9,1
2018/5/19 1:44,1.8,2,1.8,2,5.1,15
2018/5/19 1:45,2,2,2,2,4.9,16
2018/5/19 1:46,2.1,2,2.1,2,4.7,3
2018/5/19 1:47,2.4,1,2.4,1,6.7,16
2018/5/19 1:48,2.5,1,2.5,1,7.1,16
2018/5/19 1:49,2.8,1,2.8,1,8.2,1
2018/5/19 1:50,2.9,1,2.9,1,5.8,15
2018/5/19 1:51,3,16,3,16,6,16
2018/5/19 1:52,3.1,16,3.1,16,3.9,15
2018/5/19 1:53,3,16,3.1,16,3.2,1
2018/5/19 1:54,2.8,16,3,16,1.9,2
2018/5/19 1:55,2.8,16,2.8,16,3.3,15
2018/5/19 1:56,2.6,16,2.7,16,3.2,16
2018/5/19 1:57,2.4,16,2.6,16,3.1,2
2018/5/19 1:58,2.3,16,2.4,16,6.7,16
2018/5/19 1:59,2.1,16,2.3,16,6,1
2018/5/19 2:00,2.2,16,2.2,16,6,16
2018/5/19 2:01,2.3,1,2.3,16,7.5,3
2018/5/19 2:02,2.3,1,2.3,16,5.4,16
2018/5/19 2:03,2.5,1,2.5,16,8.6,2
2018/5/19 2:04,2.8,1,2.8,16,9.3,1
2018/5/19 2:05,3,1,3,1,7.6,2
2018/5/19 2:06,3.3,1,3.3,1,7,16
2018/5/19 2:07,3.5,1,3.5,1,7.7,16
2018/5/19 2:08,3.5,1,3.5,1,10.7,16
2018/5/19 2:09,3.8,1,3.8,1,10.7,2
2018/5/19 2:10,4,1,4,1,8.5,2
2018/5/19 2:11,4.1,1,4.1,1,10.2,2
2018/5/19 2:12,4.3,1,4.3,1,9.1,1
2018/5/19 2:13,4.6,1,4.6,1,12.4,2
2018/5/19 2:14,4.7,1,4.7,1,9,2
2018/5/19 2:15,4.8,1,4.8,1,7.4,1
2018/5/19 2:16,5.1,2,5.1,2,10.5,2
2018/5/19 2:17,5.2,2,5.2,2,7.7,16
2018/5/19 2:18,5.4,2,5.5,2,11.3,1
2018/5/19 2:19,5.4,2,5.4,2,8.5,1
2018/5/19 2:20,5.3,2,5.4,2,7.6,2
2018/5/19 2:21,5.2,2,5.3,2,4.3,2
2018/5/19 2:22,4.9,2,5.1,2,6.1,3
2018/5/19 2:23,4.4,2,4.8,2,4.3,3
2018/5/19 2:24,4.2,2,4.4,2,4.7,2
2018/5/19 2:25,3.9,2,4.2,2,4.3,2
2018/5/19 2:26,3.3,2,3.9,2,1.4,2
2018/5/19 2:27,2.9,2,3.2,2,1.8,9
2018/5/19 2:28,2.5,2,2.9,2,4.1,3
2018/5/19 2:29,2.4,3,2.5,2,4.8,3
2018/5/19 2:30,2,3,2.3,2,2.6,4
2018/5/19 2:31,1.9,3,2,2,2,12
2018/5/19 2:32,1.9,3,1.9,2,3.6,3
2018/5/19 2:33,2,4,2,2,6.1,3
2018/5/19 2:34,1.9,4,2,2,4.9,2
2018/5/19 2:35,1.9,4,1.9,2,3.8,2
2018/5/19 2:36,2.1,4,2.1,2,6.7,1
2018/5/19 2:37,2.5,3,2.5,2,5.6,2
2018/5/19 2:38,2.8,3,2.8,3,6.3,5
2018/5/19 2:39,2.7,3,2.8,3,5.4,4
2018/5/19 2:40,2.8,3,2.8,3,3.6,5
2018/5/19 2:41,2.8,3,2.8,3,3.2,3
2018/5/19 2:42,2.7,3,2.8,3,3,12
2018/5/19 2:43,2.5,3,2.7,3,2.5,11
2018/5/19 2:44,2.5,3,2.5,3,3.6,9
2018/5/19 2:45,2.4,4,2.4,3,2.4,5
2018/5/19 2:46,2.3,4,2.4,3,3.7,3
2018/5/19 2:47,2.2,5,2.3,3,3.7,5
2018/5/19 2:48,1.9,5,2.2,3,3.2,6
2018/5/19 2:49,1.8,6,1.9,3,1.9,11
2018/5/19 2:50,1.8,7,1.8,3,4.8,9
2018/5/19 2:51,1.8,8,1.8,3,3.8,8
2018/5/19 2:52,1.7,7,1.8,3,2,16
2018/5/19 2:53,1.9,6,1.9,3,4.2,1
2018/5/19 2:54,1.9,5,1.9,3,6,14
2018/5/19 2:55,2,2,2,4,7.6,14
2018/5/19 2:56,2.1,16,2.1,4,5.7,16
2018/5/19 2:57,2.2,16,2.2,5,6.5,16
2018/5/19 2:58,2.3,15,2.3,15,6,14
2018/5/19 2:59,2.6,15,2.6,15,6.1,15
2018/5/19 3:00,2.6,16,2.6,15,7,15
2018/5/19 3:01,2.8,16,2.8,16,8.6,16
2018/5/19 3:02,3.3,16,3.3,16,10.2,16
2018/5/19 3:03,3.4,16,3.4,16,7.9,16
2018/5/19 3:04,3.6,16,3.6,16,9.7,15
2018/5/19 3:05,3.9,16,3.9,16,8.7,15
2018/5/19 3:06,3.8,16,3.9,16,7.1,16
2018/5/19 3:07,3.7,15,3.8,16,4.8,15
2018/5/19 3:08,3.6,16,3.7,16,5.6,16
2018/5/19 3:09,3.6,16,3.7,16,7.7,16
2018/5/19 3:10,3.6,16,3.6,16,4.3,15
2018/5/19 3:11,3.5,16,3.7,16,4.3,16
2018/5/19 3:12,3,16,3.5,16,3.2,16
2018/5/19 3:13,2.8,16,3,16,2.7,1
2018/5/19 3:14,2.5,16,2.7,16,3,1
2018/5/19 3:15,2,16,2.4,16,1.5,1
2018/5/19 3:16,1.8,16,2,15,2.2,2
2018/5/19 3:17,1.7,1,1.8,15,2.2,2
2018/5/19 3:18,1.7,1,1.7,16,2.9,4
2018/5/19 3:19,1.5,2,1.7,16,3.5,6
2018/5/19 3:20,1.3,2,1.5,16,2.9,6
2018/5/19 3:21,1.3,2,1.3,16,4.3,11
2018/5/19 3:22,1.4,3,1.4,16,4.8,11
2018/5/19 3:23,1.5,3,1.5,16,3.8,14
2018/5/19 3:24,1.4,4,1.5,16,2.2,9
2018/5/19 3:25,1.5,3,1.5,16,3.9,16
2018/5/19 3:26,1.7,3,1.7,1,5.2,4
2018/5/19 3:27,1.7,3,1.7,1,2.6,4
2018/5/19 3:28,1.6,2,1.7,1,1.3,12
2018/5/19 3:29,1.5,16,1.6,3,1.9,2
2018/5/19 3:30,1.7,16,1.7,3,4.2,16
2018/5/19 3:31,1.7,1,1.8,16,3.8,15
2018/5/19 3:32,1.5,1,1.6,16,1.5,9
2018/5/19 3:33,1.6,2,1.6,16,5.6,2
2018/5/19 3:34,1.8,2,1.8,16,5.8,1
2018/5/19 3:35,2.2,2,2.2,2,9,2
2018/5/19 3:36,2.3,2,2.3,2,6.8,1
2018/5/19 3:37,2.6,1,2.6,1,6.5,16
2018/5/19 3:38,3,1,3,1,10.1,13
2018/5/19 3:39,3.3,1,3.3,1,9.8,16
2018/5/19 3:40,3.7,1,3.7,1,11.8,2
2018/5/19 3:41,4,1,4,1,10.6,16
2018/5/19 3:42,4.3,1,4.3,1,7.7,2
2018/5/19 3:43,4.4,1,4.4,1,7.2,1
2018/5/19 3:44,4.6,1,4.6,1,11,1
2018/5/19 3:45,4.4,1,4.6,1,6,15
2018/5/19 3:46,4.3,1,4.4,1,5.5,1
2018/5/19 3:47,4.3,1,4.3,1,5.7,16
2018/5/19 3:48,4.2,1,4.3,1,9.5,2
2018/5/19 3:49,4.3,1,4.3,1,9,3
2018/5/19 3:50,4,1,4.3,1,8.1,1
2018/5/19 3:51,4.2,1,4.2,1,10.2,2
2018/5/19 3:52,4.3,1,4.3,1,7.8,1
2018/5/19 3:53,4.5,1,4.5,1,11,1
2018/5/19 3:54,4.7,1,4.7,1,12.7,1
2018/5/19 3:55,4.7,1,4.8,1,9.3,1
2018/5/19 3:56,4.8,1,4.8,1,6.4,2
2018/5/19 3:57,4.9,1,4.9,1,11.9,1
2018/5/19 3:58,4.9,1,5,1,8.5,16
2018/5/19 3:59,4.6,1,4.8,1,7,1
2018/5/19 4:00,4.6,1,4.7,1,7.7,1
2018/5/19 4:01,4.2,1,4.5,1,4.8,15
2018/5/19 4:02,3.9,1,4.2,1,3.6,1
2018/5/19 4:03,3.5,1,3.9,1,3.2,3
2018/5/19 4:04,2.9,1,3.5,1,2.6,3
2018/5/19 4:05,2.7,1,2.8,1,4.7,4
2018/5/19 4:06,2.6,1,2.7,1,5.5,2
2018/5/19 4:07,2.3,1,2.6,1,3.9,4
2018/5/19 4:08,2.3,1,2.3,1,5,2
2018/5/19 4:09,2.1,1,2.3,1,1.5,3
2018/5/19 4:10,2.1,1,2.1,1,5.5,2
2018/5/19 4:11,2,1,2.1,1,4.3,2
2018/5/19 4:12,2.2,2,2.2,1,5.7,16
2018/5/19 4:13,2.3,2,2.3,1,6.5,2
2018/5/19 4:14,2.5,2,2.5,1,7.2,3
2018/5/19 4:15,2.8,2,2.8,2,7.8,2
2018/5/19 4:16,2.9,2,2.9,2,7.4,3
2018/5/19 4:17,3.1,2,3.1,2,7.2,3
2018/5/19 4:18,3.3,2,3.3,2,8.7,2
2018/5/19 4:19,3.8,2,3.8,2,8.6,1
2018/5/19 4:20,3.8,2,3.8,2,5.6,1
2018/5/19 4:21,3.9,2,3.9,2,7.9,2
2018/5/19 4:22,4.1,2,4.1,2,11.1,2
2018/5/19 4:23,4.3,2,4.3,2,10.5,16
2018/5/19 4:24,4.8,1,4.8,1,11.7,16
2018/5/19 4:25,4.8,1,4.8,1,9.4,1
2018/5/19 4:26,4.9,1,4.9,1,10.9,1
2018/5/19 4:27,5.1,1,5.1,1,9.3,2
2018/5/19 4:28,5.1,1,5.1,1,8.6,16
2018/5/19 4:29,5,1,5.1,1,8.5,16
2018/5/19 4:30,5.2,1,5.2,1,8.3,16
2018/5/19 4:31,5.1,1,5.2,1,4.2,14
2018/5/19 4:32,4.8,1,5.1,1,4.7,16
2018/5/19 4:33,4.5,1,4.8,1,3.8,1
2018/5/19 4:34,3.9,1,4.4,1,2.7,1
2018/5/19 4:35,3.6,1,3.9,1,3.2,4
2018/5/19 4:36,3.4,16,3.6,1,7.8,15
2018/5/19 4:37,3.3,16,3.4,1,9.7,16
2018/5/19 4:38,3.2,16,3.3,1,6.7,16
2018/5/19 4:39,3.2,16,3.2,1,8.9,1
2018/5/19 4:40,3.1,16,3.2,1,7.2,16
2018/5/19 4:41,3.3,16,3.3,1,11.3,15
2018/5/19 4:42,3.4,16,3.4,1,5.2,15
2018/5/19 4:43,3.4,16,3.4,1,5.8,1
2018/5/19 4:44,3.8,16,3.8,16,9.2,15
2018/5/19 4:45,4.1,16,4.1,16,10.2,16
2018/5/19 4:46,4.4,16,4.4,16,9.7,15
2018/5/19 4:47,4.2,16,4.3,16,7.7,2
2018/5/19 4:48,4.3,16,4.3,16,8.2,1
2018/5/19 4:49,4.2,16,4.3,16,6.5,16
2018/5/19 4:50,4.3,16,4.4,16,7.4,1
2018/5/19 4:51,4.4,16,4.5,16,8.3,2
2018/5/19 4:52,4.5,1,4.5,16,7.6,2
2018/5/19 4:53,4.6,16,4.6,1,8.4,1
2018/5/19 4:54,4.4,1,4.5,1,8.1,1
2018/5/19 4:55,4.2,1,4.4,1,5.8,16
2018/5/19 4:56,4,1,4.1,1,12.6,15
2018/5/19 4:57,4.3,1,4.3,1,11,1
2018/5/19 4:58,4.1,1,4.3,1,5.7,1
2018/5/19 4:59,4.1,1,4.1,1,7.5,1
2018/5/19 5:00,3.8,1,4,1,4.8,2
2018/5/19 5:01,3.7,1,3.8,1,9.7,1
2018/5/19 5:02,3.7,1,3.8,1,9,16
2018/5/19 5:03,3.5,1,3.7,16,4.7,16
2018/5/19 5:04,3.4,1,3.5,1,6.3,16
2018/5/19 5:05,3.4,1,3.4,1,5.2,1
2018/5/19 5:06,3.2,1,3.4,1,4.2,1
2018/5/19 5:07,2.9,1,3.1,1,5.2,1
2018/5/19 5:08,3.1,1,3.1,1,4.7,2
2018/5/19 5:09,2.9,1,3,1,3.9,2
2018/5/19 5:10,2.8,1,2.9,1,1.8,1
2018/5/19 5:11,2.4,2,2.8,1,3.1,14
2018/5/19 5:12,2.1,2,2.4,1,2.5,13
2018/5/19 5:13,2.1,1,2.1,1,1.6,11
2018/5/19 5:14,1.9,1,2,1,2.1,1
2018/5/19 5:15,1.8,1,1.9,1,3,2
2018/5/19 5:16,1.8,2,1.8,1,3.9,3
2018/5/19 5:17,1.5,2,1.8,1,2.6,16
2018/5/19 5:18,1.3,1,1.5,1,3.1,12
2018/5/19 5:19,1.4,16,1.4,1,5.5,15
2018/5/19 5:20,1.5,16,1.5,1,4.7,1
2018/5/19 5:21,1.8,16,1.8,2,8.7,16
2018/5/19 5:22,1.9,16,1.9,2,2.5,14
2018/5/19 5:23,2,1,2,1,3.5,3
2018/5/19 5:24,2.2,1,2.2,1,6.9,2
2018/5/19 5:25,2.3,1,2.3,1,6.7,3
2018/5/19 5:26,2.5,1,2.5,1,7.5,1
2018/5/19 5:27,3,1,3,1,9.2,1
2018/5/19 5:28,3.1,1,3.1,1,7.7,1
2018/5/19 5:29,3.1,1,3.2,1,4.2,4
2018/5/19 5:30,2.9,1,3,1,2.7,12
2018/5/19 5:31,2.6,2,2.9,1,1.5,4
2018/5/19 5:32,2.6,2,2.6,1,1.9,8
2018/5/19 5:33,2.5,3,2.6,1,2.9,8
2018/5/19 5:34,2.4,3,2.6,1,2.9,2
2018/5/19 5:35,2.5,3,2.5,1,6.9,1
2018/5/19 5:36,2.4,4,2.5,1,5.6,1
2018/5/19 5:37,2,4,2.4,1,2.5,4
2018/5/19 5:38,1.9,4,2,1,3.2,1
2018/5/19 5:39,1.8,4,1.9,1,2.6,2
2018/5/19 5:40,1.9,4,1.9,1,3.2,13
2018/5/19 5:41,1.9,4,1.9,2,1.9,9
2018/5/19 5:42,1.9,4,1.9,2,2.4,5
2018/5/19 5:43,1.8,3,1.9,3,3.9,15
2018/5/19 5:44,2,3,2,4,5.4,1
2018/5/19 5:45,1.9,3,2,4,6.7,4
2018/5/19 5:46,1.9,2,1.9,4,4.8,5
2018/5/19 5:47,1.9,2,1.9,4,4.4,16
2018/5/19 5:48,1.8,2,1.9,3,2.7,2
2018/5/19 5:49,1.8,2,1.8,3,2,16
2018/5/19 5:50,1.8,2,1.8,3,4.5,2
2018/5/19 5:51,2.1,1,2.1,2,5.8,2
2018/5/19 5:52,2.2,1,2.2,1,4.3,2
2018/5/19 5:53,2.6,2,2.6,2,8.1,2
2018/5/19 5:54,2.6,2,2.6,2,5.4,2
2018/5/19 5:55,2.4,1,2.5,2,3.3,15
2018/5/19 5:56,2.2,1,2.4,2,3.2,16
2018/5/19 5:57,2.2,1,2.2,2,2,3
2018/5/19 5:58,2.4,2,2.4,2,6.7,3
2018/5/19 5:59,2.8,2,2.8,2,9.2,16
2018/5/19 6:00,3.1,2,3.1,2,7,1
2018/5/19 6:01,3.3,2,3.3,2,10.5,2
2018/5/19 6:02,3.4,1,3.4,1,7.7,1
2018/5/19 6:03,3.1,1,3.4,1,3.3,1
2018/5/19 6:04,3,1,3,1,4.1,15
2018/5/19 6:05,3,1,3,1,6.8,5
2018/5/19 6:06,3.4,1,3.4,1,9.1,1
2018/5/19 6:07,3.7,1,3.7,1,6,2
2018/5/19 6:08,3.6,1,3.8,1,4.1,1
2018/5/19 6:09,3.2,1,3.6,1,2.5,16
2018/5/19 6:10,2.9,1,3.2,1,2.4,16
2018/5/19 6:11,2.6,1,2.9,1,4.3,14
2018/5/19 6:12,2.4,16,2.6,1,3.3,13
2018/5/19 6:13,2.3,1,2.4,1,1.6,3
2018/5/19 6:14,2.4,1,2.4,1,5,3
2018/5/19 6:15,2.3,1,2.4,1,2.7,14
2018/5/19 6:16,2,16,2.3,1,3.5,14
2018/5/19 6:17,1.8,16,2,1,5.2,15
2018/5/19 6:18,1.9,16,1.9,1,6.4,16
2018/5/19 6:19,1.9,16,1.9,1,3,16
2018/5/19 6:20,1.9,15,1.9,1,4.2,16
2018/5/19 6:21,1.8,15,1.9,1,3.5,13
2018/5/19 6:22,1.8,16,1.9,16,2.7,1
2018/5/19 6:23,1.9,16,1.9,1,3.2,16
2018/5/19 6:24,1.9,16,1.9,1,3.5,1
2018/5/19 6:25,1.9,16,1.9,1,2.9,3
2018/5/19 6:26,2,1,2,16,3.9,3
2018/5/19 6:27,2,1,2.1,1,4.8,16
2018/5/19 6:28,1.9,1,2,1,3.7,16
2018/5/19 6:29,2.2,1,2.2,1,8.6,3
2018/5/19 6:30,2.4,2,2.4,2,6.3,2
2018/5/19 6:31,2.5,2,2.5,2,4.8,2
2018/5/19 6:32,2.5,2,2.5,2,3.3,4
2018/5/19 6:33,2.5,2,2.6,2,4.2,3
2018/5/19 6:34,2.4,2,2.5,2,2.5,3
2018/5/19 6:35,2.5,2,2.5,2,3.9,3
2018/5/19 6:36,2.4,2,2.5,2,3.2,15
2018/5/19 6:37,2.1,2,2.4,2,0.9,4
2018/5/19 6:38,2,2,2.1,2,0.6,2
2018/5/19 6:39,1.8,2,2,2,2.9,16
2018/5/19 6:40,1.4,2,1.7,2,1.6,2
2018/5/19 6:41,1.2,2,1.4,2,2.4,15
2018/5/19 6:42,1.3,2,1.3,2,4.5,7
2018/5/19 6:43,1.3,1,1.3,2,4.2,12
2018/5/19 6:44,1.5,16,1.5,2,5.1,15
2018/5/19 6:45,1.3,16,1.5,2,2.2,15
2018/5/19 6:46,1.6,15,1.6,2,5.8,16
2018/5/19 6:47,1.8,15,1.8,2,4.5,2
2018/5/19 6:48,2,15,2,2,4.5,2
2018/5/19 6:49,2.1,15,2.1,15,5.1,14
2018/5/19 6:50,2.2,15,2.2,15,5.1,14
2018/5/19 6:51,2.3,15,2.3,15,4.5,3
2018/5/19 6:52,2.4,16,2.4,16,6.2,16
2018/5/19 6:53,2.8,16,2.8,16,10.1,14
2018/5/19 6:54,2.9,16,2.9,16,7.6,1
2018/5/19 6:55,3.2,16,3.2,16,8.1,16
2018/5/19 6:56,3.6,16,3.6,16,12.7,16
2018/5/19 6:57,3.7,16,3.7,16,8.4,16
2018/5/19 6:58,3.9,15,3.9,15,7.7,16
2018/5/19 6:59,4.4,15,4.4,15,12.5,16
2018/5/19 7:00,4.4,15,4.4,15,8.2,14
2018/5/19 7:01,4.7,15,4.7,15,7.4,16
2018/5/19 7:02,4.9,15,4.9,15,9,15
2018/5/19 7:03,5.2,15,5.2,15,17,15
2018/5/19 7:04,5.3,15,5.4,15,8.3,13
2018/5/19 7:05,5.3,15,5.3,15,11.6,15
2018/5/19 7:06,5.4,15,5.5,15,13.5,15
2018/5/19 7:07,5.6,16,5.6,16,11.5,15
2018/5/19 7:08,5.5,15,5.6,16,8.7,15
2018/5/19 7:09,5.2,15,5.5,16,7.6,15
2018/5/19 7:10,5.4,15,5.4,16,5.6,16
2018/5/19 7:11,5.1,15,5.4,16,4.7,1
2018/5/19 7:12,5.1,15,5.2,16,7.7,16
2018/5/19 7:13,4.4,16,5.1,16,5.1,1
2018/5/19 7:14,4.3,16,4.4,16,5.6,16
2018/5/19 7:15,4.2,16,4.4,16,6.3,16
2018/5/19 7:16,3.9,15,4.2,16,8.4,16
2018/5/19 7:17,3.7,16,3.9,16,7,16
2018/5/19 7:18,4,16,4,15,12.2,16
2018/5/19 7:19,4,16,4,15,9.4,16
2018/5/19 7:20,4,16,4,15,9,16
2018/5/19 7:21,4.3,16,4.3,15,8.7,16
2018/5/19 7:22,4,16,4.3,15,3.7,2
2018/5/19 7:23,4.2,16,4.2,16,9.3,1
2018/5/19 7:24,4.4,16,4.4,16,7.9,14
2018/5/19 7:25,4.4,16,4.5,16,6.5,14
2018/5/19 7:26,4,16,4.3,16,4.3,14
2018/5/19 7:27,4.1,15,4.1,16,7.6,16
2018/5/19 7:28,4,15,4.2,16,10.2,16
2018/5/19 7:29,4.1,16,4.1,16,7.6,15
2018/5/19 7:30,4.2,15,4.2,16,10,16
2018/5/19 7:31,4.3,15,4.3,16,13,16
2018/5/19 7:32,4.8,15,4.8,15,9.7,15
2018/5/19 7:33,4.6,15,4.8,15,4.4,16
2018/5/19 7:34,4.4,16,4.6,15,8.9,15
2018/5/19 7:35,4.5,16,4.5,15,5.4,1
2018/5/19 7:36,4.5,16,4.5,15,5.2,2
2018/5/19 7:37,4.2,16,4.5,15,2.4,2
2018/5/19 7:38,3.7,16,4.1,15,2.4,4
2018/5/19 7:39,3.3,16,3.7,15,2,3
2018/5/19 7:40,2.9,16,3.2,15,2.6,1
2018/5/19 7:41,2.7,16,2.8,15,7.9,15
2018/5/19 7:42,2.4,1,2.7,15,6.2,16
2018/5/19 7:43,2.5,1,2.5,15,6.3,1
2018/5/19 7:44,2.3,1,2.6,16,4.1,3
2018/5/19 7:45,2.5,1,2.5,16,8.1,16
2018/5/19 7:46,2.7,16,2.7,16,8.9,16
2018/5/19 7:47,2.8,16,2.8,16,5.7,15
2018/5/19 7:48,3,16,3,16,5.5,16
2018/5/19 7:49,3.1,16,3.1,16,4.2,16
2018/5/19 7:50,3.2,16,3.2,16,8.6,16
2018/5/19 7:51,3.3,16,3.4,16,9.1,16
2018/5/19 7:52,3.2,16,3.3,16,7.2,16
2018/5/19 7:53,3.4,16,3.4,16,8.1,15
2018/5/19 7:54,3.7,16,3.7,16,6.8,1
2018/5/19 7:55,3.7,16,3.7,16,8.6,1
2018/5/19 7:56,3.7,16,3.7,16,8.6,15
2018/5/19 7:57,4,16,4,16,10.6,15
2018/5/19 7:58,4,16,4.1,16,5,14
2018/5/19 7:59,4.2,16,4.2,16,5.6,15
2018/5/19 8:00,4.2,16,4.3,16,5.4,1
2018/5/19 8:01,3.8,16,4.1,16,3.2,3
2018/5/19 8:02,3.8,16,3.8,16,6.1,14
2018/5/19 8:03,3.7,16,3.8,16,7.5,13
2018/5/19 8:04,3.4,16,3.6,16,3.7,15
2018/5/19 8:05,3.3,16,3.4,16,6.3,4
2018/5/19 8:06,3,16,3.3,16,6.1,4
2018/5/19 8:07,2.7,16,2.9,16,4.2,14
2018/5/19 8:08,2.6,16,2.7,16,4.9,12
2018/5/19 8:09,2.4,15,2.7,16,3.3,13
2018/5/19 8:10,2.3,15,2.4,16,2.4,6
2018/5/19 8:11,2.3,15,2.4,16,8.1,15
2018/5/19 8:12,2.8,15,2.8,16,11.9,15
2018/5/19 8:13,2.7,16,2.8,16,6.1,16
2018/5/19 8:14,2.7,16,2.7,16,3.9,1
2018/5/19 8:15,2.6,15,2.8,16,5.5,14
2018/5/19 8:16,2.9,15,2.9,16,9.3,15
2018/5/19 8:17,3.1,15,3.1,15,9.2,16
2018/5/19 8:18,3,16,3.1,15,4.9,1
2018/5/19 8:19,3.1,16,3.1,15,6.2,15
2018/5/19 8:20,3.2,16,3.2,16,7.6,15
2018/5/19 8:21,3.5,16,3.5,16,7.9,14
2018/5/19 8:22,3.2,16,3.5,16,6.1,15
2018/5/19 8:23,3.1,16,3.3,16,7.4,3
2018/5/19 8:24,3,16,3.1,16,3.2,2
2018/5/19 8:25,2.9,16,3,16,2.6,3
2018/5/19 8:26,2.5,1,2.9,16,1.1,4
2018/5/19 8:27,2.2,1,2.5,16,2.5,11
2018/5/19 8:28,2.2,1,2.2,16,7.7,15
2018/5/19 8:29,2.4,16,2.4,16,9.3,15
2018/5/19 8:30,2.6,16,2.6,16,7.1,16
2018/5/19 8:31,2.5,1,2.6,16,9.1,15
2018/5/19 8:32,2.6,1,2.6,16,9.4,16
2018/5/19 8:33,2.7,16,2.7,16,6.2,16
2018/5/19 8:34,2.8,16,2.8,16,4.4,16
2018/5/19 8:35,2.7,16,2.8,1,3.9,3
2018/5/19 8:36,2.8,16,2.8,16,3.8,16
2018/5/19 8:37,2.9,16,2.9,16,5.7,16
2018/5/19 8:38,2.9,16,3,16,4.3,2
2018/5/19 8:39,2.7,1,2.9,16,4.1,1
2018/5/19 8:40,2.5,1,2.7,16,5,16
2018/5/19 8:41,2.4,1,2.5,16,6.3,16
2018/5/19 8:42,2.5,1,2.5,16,6.9,2
2018/5/19 8:43,2.6,1,2.6,16,9,1
2018/5/19 8:44,2.8,1,2.8,16,7.1,16
2018/5/19 8:45,2.8,1,2.8,16,4.9,15
2018/5/19 8:46,2.9,1,2.9,16,5.8,2
2018/5/19 8:47,3.1,1,3.1,1,6.3,1
2018/5/19 8:48,3,1,3.1,1,2.9,16
2018/5/19 8:49,3,1,3,1,3.9,2
2018/5/19 8:50,2.9,2,2.9,1,4.1,3
2018/5/19 8:51,2.6,2,2.9,1,2.1,15
2018/5/19 8:52,2.3,2,2.6,1,3.2,16
2018/5/19 8:53,2.2,2,2.3,1,6.4,4
2018/5/19 8:54,2.2,2,2.3,1,5.7,3
2018/5/19 8:55,2.2,1,2.3,1,4.4,1
2018/5/19 8:56,2.1,1,2.2,1,2.4,14
2018/5/19 8:57,2.2,1,2.2,1,9.4,16
2018/5/19 8:58,2.5,1,2.5,1,7.2,1
2018/5/19 8:59,2.6,1,2.6,1,4.8,15
2018/5/19 9:00,2.7,16,2.7,2,5.1,15
2018/5/19 9:01,2.9,16,2.9,16,5.1,15
2018/5/19 9:02,2.9,16,3,16,3.3,2
2018/5/19 9:03,2.7,16,2.9,16,3.9,15
2018/5/19 9:04,2.6,16,2.7,16,5,1
2018/5/19 9:05,2.4,16,2.5,16,1.5,13
2018/5/19 9:06,2.4,16,2.5,16,1.5,2
2018/5/19 9:07,2.3,1,2.4,16,7,16
2018/5/19 9:08,2.1,1,2.3,16,7.6,15
2018/5/19 9:09,1.8,1,2.1,16,1.5,1
2018/5/19 9:10,1.6,1,1.8,16,1.8,14
2018/5/19 9:11,1.5,1,1.6,16,1.8,16
2018/5/19 9:12,1.4,16,1.5,16,3.5,13
2018/5/19 9:13,1.5,16,1.5,16,3.1,15
2018/5/19 9:14,1.7,16,1.7,16,8.1,15
2018/5/19 9:15,1.8,16,1.8,16,5.4,1
2018/5/19 9:16,2.1,16,2.1,16,7.1,15
2018/5/19 9:17,2.3,15,2.3,1,8.1,16
2018/5/19 9:18,2.4,15,2.4,15,8.1,15
2018/5/19 9:19,2.6,15,2.6,15,6.7,14
2018/5/19 9:20,2.8,15,2.8,15,4.1,16
2018/5/19 9:21,2.9,15,2.9,15,3.6,2
2018/5/19 9:22,3.1,16,3.1,16,6,4
2018/5/19 9:23,3.1,16,3.1,16,5,2
2018/5/19 9:24,2.9,16,3.1,16,3.9,16
2018/5/19 9:25,2.7,1,2.8,16,1.9,1
2018/5/19 9:26,2.6,1,2.7,16,4.2,16
2018/5/19 9:27,2.3,16,2.5,16,4.7,14
2018/5/19 9:28,2,16,2.2,16,3.7,16
2018/5/19 9:29,2.1,1,2.1,16,9,16
2018/5/19 9:30,2.5,1,2.5,16,11.8,16
2018/5/19 9:31,2.5,16,2.5,16,7.2,15
2018/5/19 9:32,2.5,16,2.5,16,5.6,16
2018/5/19 9:33,2.5,16,2.5,16,7.4,16
2018/5/19 9:34,2.6,16,2.6,16,6.9,1
2018/5/19 9:35,3.3,16,3.3,16,11.8,16
2018/5/19 9:36,3.5,16,3.5,16,8.2,16
2018/5/19 9:37,4.1,16,4.1,16,15.1,15
2018/5/19 9:38,4.5,16,4.5,16,7.7,15
2018/5/19 9:39,4.7,16,4.7,16,10.2,15
2018/5/19 9:40,4.7,16,4.9,16,14.1,15
2018/5/19 9:41,4.9,15,4.9,16,6.9,16
2018/5/19 9:42,5.2,15,5.2,15,11.3,16
2018/5/19 9:43,5.6,15,5.6,15,13.4,15
2018/5/19 9:44,5.6,15,5.7,15,6.1,15
2018/5/19 9:45,5.2,15,5.6,15,5.1,14
2018/5/19 9:46,5.4,15,5.4,15,8.4,15
2018/5/19 9:47,4.9,15,5.3,15,6.3,16
2018/5/19 9:48,4.7,15,4.9,15,4.4,1
2018/5/19 9:49,4.6,15,4.7,15,6.9,14
2018/5/19 9:50,4.1,15,4.5,15,6.1,15
2018/5/19 9:51,4.1,15,4.2,15,7.2,15
2018/5/19 9:52,3.6,15,4.1,15,1.4,7
2018/5/19 9:53,3.2,15,3.5,15,4.7,15
2018/5/19 9:54,3.1,15,3.2,15,4.7,16
2018/5/19 9:55,3.3,15,3.3,15,8.3,1
2018/5/19 9:56,3.4,15,3.4,15,10.2,13
2018/5/19 9:57,3.5,15,3.5,15,8.5,16
2018/5/19 9:58,3.6,15,3.6,15,8.3,16
2018/5/19 9:59,3.4,15,3.6,15,6.2,16
2018/5/19 10:00,3.8,15,3.8,15,12.8,14
2018/5/19 10:01,4,15,4,15,11.1,15
2018/5/19 10:02,4.7,15,4.7,15,12.5,16
2018/5/19 10:03,5,15,5,15,9.7,1
2018/5/19 10:04,5.2,15,5.2,15,9.2,16
2018/5/19 10:05,5.1,15,5.3,15,7.9,15
2018/5/19 10:06,5,15,5.2,15,9.2,15
2018/5/19 10:07,5,15,5,15,10,15
2018/5/19 10:08,5.2,15,5.2,15,10.8,14
2018/5/19 10:09,5.6,15,5.6,15,13.4,15
2018/5/19 10:10,5.9,15,6,15,13.3,16
2018/5/19 10:11,5.7,15,5.9,15,8.7,16
2018/5/19 10:12,5.4,15,5.6,15,8.4,13
2018/5/19 10:13,5.5,15,5.5,15,11.5,16
2018/5/19 10:14,5.8,15,5.8,15,13.4,2
2018/5/19 10:15,5.8,15,5.9,15,10.3,14
2018/5/19 10:16,5.8,15,5.9,15,10.9,14
2018/5/19 10:17,6.1,15,6.2,15,13.8,15
2018/5/19 10:18,6.2,15,6.2,15,9.8,16
2018/5/19 10:19,6,15,6.3,15,8.9,15
2018/5/19 10:20,5.7,15,5.9,15,9.8,14
2018/5/19 10:21,6,15,6,15,13.3,15
2018/5/19 10:22,6.3,15,6.3,15,10.9,16
2018/5/19 10:23,6.2,15,6.3,15,11.7,15
2018/5/19 10:24,6.2,15,6.3,15,13.9,15
2018/5/19 10:25,6.6,15,6.6,15,12.6,16
2018/5/19 10:26,6.4,15,6.6,15,6.5,16
2018/5/19 10:27,6,15,6.4,15,5,16
2018/5/19 10:28,5.5,16,5.9,15,4.2,16
2018/5/19 10:29,5.2,16,5.5,15,5.1,1
2018/5/19 10:30,4.9,16,5.2,15,5.1,16
2018/5/19 10:31,4.5,16,5,15,4.4,15
2018/5/19 10:32,4,16,4.4,15,4.4,16
2018/5/19 10:33,3.5,16,4,15,2.1,15
2018/5/19 10:34,2.9,16,3.5,15,3.2,9
2018/5/19 10:35,2.2,16,2.9,15,6.4,15
2018/5/19 10:36,2.2,16,2.4,15,9.9,15
2018/5/19 10:37,2.1,16,2.2,15,2.6,3
2018/5/19 10:38,2,1,2,16,2.7,4
2018/5/19 10:39,2,1,2,16,4.4,15
2018/5/19 10:40,2.1,1,2.2,16,8.2,16
2018/5/19 10:41,2.3,16,2.3,16,7.6,14
2018/5/19 10:42,2.5,16,2.5,16,9.4,15
2018/5/19 10:43,2.8,1,2.8,16,7,16
2018/5/19 10:44,3.1,1,3.1,1,4.8,1
2018/5/19 10:45,3.2,16,3.2,16,4.8,16
2018/5/19 10:46,3.3,16,3.3,16,6,15
2018/5/19 10:47,3.7,16,3.7,16,10.5,15
2018/5/19 10:48,3.9,15,3.9,16,8.6,15
2018/5/19 10:49,4,15,4,15,4.5,10
2018/5/19 10:50,4,15,4,15,8.6,15
2018/5/19 10:51,4.1,15,4.1,15,8.6,16
2018/5/19 10:52,4.4,15,4.4,15,13.2,16
2018/5/19 10:53,4.6,15,4.6,15,10.8,14
2018/5/19 10:54,4.6,15,4.6,15,6.8,15
2018/5/19 10:55,4.5,15,4.7,15,6.7,14
2018/5/19 10:56,4.4,15,4.6,15,6.8,15
2018/5/19 10:57,4.2,15,4.4,15,7.5,15
2018/5/19 10:58,4.1,15,4.2,15,5.7,16
2018/5/19 10:59,4.2,15,4.2,15,6.5,16
2018/5/19 11:00,4.1,15,4.2,15,7.9,15
2018/5/19 11:01,4.2,15,4.2,15,8.1,15
2018/5/19 11:02,4,15,4.2,15,8.7,15
2018/5/19 11:03,3.7,15,4,15,6.2,14
2018/5/19 11:04,3.7,15,3.7,15,6.2,16
2018/5/19 11:05,4.1,15,4.1,15,9.3,14
2018/5/19 11:06,4.4,15,4.4,15,9.9,16
2018/5/19 11:07,4.6,16,4.6,16,9.3,15
2018/5/19 11:08,4.8,16,4.8,16,10,16
2018/5/19 11:09,5,16,5,16,8.4,16
2018/5/19 11:10,4.7,16,4.9,16,4.3,14
2018/5/19 11:11,4.6,16,4.7,16,7.7,15
2018/5/19 11:12,4.7,16,4.7,16,14.8,14
2018/5/19 11:13,4.8,16,4.8,16,8.2,16
2018/5/19 11:14,4.9,16,4.9,16,8.2,16
2018/5/19 11:15,4.8,16,5,16,9.3,15
2018/5/19 11:16,4.7,16,4.7,16,9.9,15
2018/5/19 11:17,4.7,16,4.8,16,11.9,16
2018/5/19 11:18,4.8,16,4.8,16,10.9,16